Regional Weather Roundup
Issued by NWS

Home | Current Version | Previous Version | Graphics & Text | Print | Product List | Glossary On
Versions: 1 2 3 4 5 6 7 8 9 10 11 12 13 14 15 16 17 18 19 20 21 22 23 24 25 26 27 28 29 30 31 32 33 34 35 36 37 38 39 40 41 42 43 44 45 46 47 48 49 50
000
ASUS43 KBIS 172302
RWRND

NORTH DAKOTA REGIONAL WEATHER ROUNDUP
NATIONAL WEATHER SERVICE BISMARCK ND
500 PM CST WED JAN 17 2018

NOTE: "FAIR" INDICATES FEW OR NO CLOUDS BELOW 12,000 FEET WITH NO
SIGNIFICANT WEATHER AND/OR OBSTRUCTIONS TO VISIBILITY.


NDZ001>003-009>011-017-180000-
NORTHWEST NORTH DAKOTA

CITY           SKY/WX    TMP DP  RH WIND       PRES   REMARKS
WILLISTON      CLEAR     31  22  69 S7        30.03F
MINOT          CLEAR     36  22  56 W16       29.94F
MINOT AFB      CLEAR     34  23  64 W17       29.92F
$$

NDZ018>021-031>035-040>046-180000-
SOUTHWEST NORTH DAKOTA

CITY           SKY/WX    TMP DP  RH WIND       PRES   REMARKS
BISMARCK       CLEAR     37  25  61 W13       30.08S
DICKINSON      CLEAR     33  22  63 W14       30.05F
GARRISON         N/A     35  24  64 W18       30.00F
HETTINGER ARPT CLEAR     33  23  66 W13       30.13F
$$

NDZ004>008-012>016-024-026-027-054-180000-
NORTHEAST NORTH DAKOTA

CITY           SKY/WX    TMP DP  RH WIND       PRES   REMARKS
GRAND FORKS    FAIR      33  24  69 W12       29.91R
GRND FRKS AFB  FAIR      37  25  62 W10G17    29.90S
DEVILS LAKE    FAIR      32  24  72 W21       29.93S WCI  20
$$

NDZ022-023-025-028>030-036>039-047>053-180000-
SOUTHEAST NORTH DAKOTA

CITY           SKY/WX    TMP DP  RH WIND       PRES   REMARKS
FARGO          FAIR      32  23  69 SW16      30.00S
JAMESTOWN      CLEAR     33  24  69 W14       29.99F
$$





USA.gov is the U.S. government's official web portal to all federal, state and local government web resources and services.